Location: Tr�vern
(48.0333°N, 4.6000°W)
Time: 08:41:51
(UTC+00:00)

COSMOS 2406 - Pass Details

Date: 14 July 2020
Orbit: 844 x 863 km, 71.0° (Epoch: 04 August)

Event Time Altitude Azimuth Distance (km) Brightness Sun altitude
Exits shadow 02:31:40 21° 220° (SW) 1,822 4.3 -14.7°
Maximum altitude 02:35:33 69° 300° (WNW) 922 3.4 -14.4°
Drops below altitude 10° 02:41:19 10° 24° (NNE) 2,510 7.1 -13.9°
Sets 02:43:48 0° 27° (NNE) 3,449 8.3 -13.7°
